| time (UTC) | temp C | wind direction | speed KPH | gust KPH | rain 1hr cm | rain 24hr cm | rain mn cm | humidity % | barometer mb |
| 20260503181505 | -17 | 0.0 | 0.0 | 0.00 | 0.00 | 0.00 | 1012.7 | ||
| 20260503180018 | -17 | 0.0 | 0.0 | 0.00 | 0.00 | 0.00 | 1012.8 | ||
| 20260503174513 | -17 | 0.0 | 0.0 | 0.00 | 0.00 | 0.00 | 1012.8 | ||
| 20260503173019 | -17 | 0.0 | 0.0 | 0.00 | 0.00 | 0.00 | 1012.8 | ||
| 20260503171510 | -17 | 0.0 | 0.0 | 0.00 | 0.00 | 0.00 | 1012.9 | ||
| 20260503081524 | 13 | 223 | 0.0 | 0.0 | 0.00 | 0.03 | 0.00 | 90 | 1013.9 |
| 20260503071532 | 13 | 223 | 0.0 | 1.6 | 0.00 | 3.48 | 0.00 | 89 | 1014.1 |
| 20260503054532 | 15 | 223 | 0.0 | 4.8 | 0.00 | 3.48 | 3.48 | 85 | 1014.3 |
| 20260503053004 | 16 | 47 | 0.0 | 0.0 | 0.00 | 3.48 | 3.48 | 83 | 1014.2 |
| 20260503051505 | 16 | 47 | 0.0 | 4.8 | 0.00 | 3.48 | 3.48 | 82 | 1014.1 |
| 20260503050003 | 16 | 32 | 1.6 | 6.4 | 0.00 | 3.48 | 3.48 | 82 | 1013.9 |
| 20260503044518 | 16 | 40 | 3.2 | 14.5 | 0.00 | 3.48 | 3.48 | 81 | 1013.9 |
| 20260503043007 | 16 | 32 | 6.4 | 12.9 | 0.00 | 3.48 | 3.48 | 79 | 1013.8 |
| 20260503041512 | 17 | 63 | 3.2 | 12.9 | 0.00 | 3.48 | 3.48 | 78 | 1013.7 |
| 20260503040012 | 17 | 48 | 4.8 | 9.7 | 0.00 | 3.48 | 3.48 | 78 | 1013.6 |
| 20260503034510 | 17 | 69 | 6.4 | 11.3 | 0.00 | 3.48 | 3.48 | 78 | 1013.7 |
| 20260503033014 | 17 | 65 | 1.6 | 8.0 | 0.00 | 3.48 | 3.48 | 78 | 1013.5 |
| 20260503031506 | 17 | 110 | 1.6 | 3.2 | 0.00 | 3.48 | 3.48 | 78 | 1013.7 |
| 20260503030004 | 17 | 0.0 | 0.0 | 0.00 | 3.48 | 3.48 | 69 | 1013.6 | |
| 20260503024504 | 17 | 254 | 0.0 | 0.0 | 0.00 | 3.48 | 3.48 | 68 | 1013.5 |
| 20260503023008 | 17 | 253 | 0.0 | 4.8 | 0.00 | 3.48 | 3.48 | 70 | 1013.6 |
| 20260503021514 | 17 | 321 | 0.0 | 4.8 | 0.00 | 3.48 | 3.48 | 71 | 1014.0 |
| 20260503020016 | 17 | 126 | 1.6 | 16.1 | 0.00 | 3.48 | 3.48 | 70 | 1014.4 |
| 20260503014512 | 18 | 135 | 3.2 | 14.5 | 0.00 | 3.48 | 3.48 | 66 | 1014.5 |
| 20260503013006 | 18 | 102 | 0.0 | 0.0 | 0.00 | 3.48 | 3.48 | 64 | 1013.6 |
| 20260503011508 | 19 | 234 | 0.0 | 0.0 | 0.00 | 3.48 | 3.48 | 62 | 1013.5 |
| 20260503010004 | 20 | 169 | 0.0 | 0.0 | 0.00 | 3.48 | 3.48 | 61 | 1013.4 |
| 20260503004525 | 20 | 182 | 0.0 | 0.0 | 0.00 | 3.48 | 3.48 | 60 | 1013.3 |
| 20260503003038 | 20 | 213 | 0.0 | 0.0 | 0.00 | 3.48 | 3.48 | 60 | 1013.2 |
| 20260503001508 | 20 | 213 | 0.0 | 0.0 | 0.00 | 3.48 | 3.48 | 60 | 1013.2 |
| 20260503000012 | 20 | 213 | 0.0 | 0.0 | 0.00 | 3.48 | 3.48 | 58 | 1013.2 |
| 20260502234514 | 21 | 101 | 0.0 | 0.0 | 0.00 | 3.48 | 3.48 | 54 | 1013.3 |
| 20260502233020 | 21 | 239 | 0.0 | 1.6 | 0.00 | 3.48 | 3.48 | 50 | 1013.5 |
| 20260502231507 | 21 | 5 | 0.0 | 8.0 | 0.00 | 3.48 | 3.48 | 50 | 1013.7 |
| 20260502230011 | 21 | 290 | 0.0 | 3.2 | 0.00 | 3.48 | 3.48 | 51 | 1013.9 |
| 20260502224515 | 20 | 281 | 0.0 | 9.7 | 0.00 | 3.48 | 3.48 | 50 | 1014.0 |
| 20260502223020 | 20 | 273 | 0.0 | 0.0 | 0.00 | 3.48 | 3.48 | 55 | 1014.3 |
| 20260502221521 | 20 | 334 | 0.0 | 1.6 | 0.00 | 3.48 | 3.48 | 54 | 1014.4 |
| 20260502220020 | 20 | 262 | 0.0 | 3.2 | 0.00 | 3.48 | 3.48 | 54 | 1014.6 |
| 20260502214511 | 19 | 329 | 0.0 | 4.8 | 0.00 | 3.48 | 3.48 | 55 | 1014.8 |
| 20260502213021 | 18 | 5 | 0.0 | 3.2 | 0.00 | 3.48 | 3.48 | 56 | 1015.2 |
| 20260502211517 | 18 | 297 | 0.0 | 4.8 | 0.00 | 3.48 | 3.48 | 58 | 1015.3 |
| 20260502210023 | 17 | 251 | 0.0 | 4.8 | 0.00 | 3.48 | 3.48 | 62 | 1015.5 |
| 20260502204526 | 17 | 299 | 0.0 | 0.0 | 0.00 | 3.48 | 3.48 | 62 | 1015.7 |
| 20260502203015 | 16 | 300 | 0.0 | 0.0 | 0.00 | 3.48 | 3.48 | 64 | 1016.0 |
| 20260502201525 | 15 | 54 | 0.0 | 1.6 | 0.00 | 3.48 | 3.48 | 66 | 1016.2 |
| 20260502200020 | 15 | 296 | 0.0 | 1.6 | 0.00 | 3.48 | 3.48 | 70 | 1016.2 |
| 20260502194526 | 15 | 272 | 0.0 | 0.0 | 0.00 | 3.48 | 3.48 | 69 | 1016.4 |
| 20260502193018 | 14 | 252 | 0.0 | 0.0 | 0.00 | 3.48 | 3.48 | 70 | 1016.4 |
| 20260502191513 | 14 | 248 | 0.0 | 3.2 | 0.00 | 3.48 | 3.48 | 72 | 1016.5 |
| 20260502190025 | -17 | 0.0 | 0.0 | 0.00 | 3.48 | 3.48 | 1016.9 | ||
| 20260502184532 | -17 | 0.0 | 0.0 | 0.00 | 3.48 | 3.48 | 1017.1 | ||
| 20260502183026 | 12 | 81 | 4.8 | 11.3 | 0.00 | 3.48 | 3.48 | 1017.1 |